DGGR11 RPUV-RPLL

Flight info

Callsign DGGR11
Flight time 0h 34m
Altitude 24000
Route NGA W9 AKDAP AKDAP1A
Aircraft F35/M-SDE3RV/LB1

Departure

Time 2026-05-01 14:22
Airport Virac Airport (RPUV)

Arrival

Time 2026-05-01 14:56
Airport Ninoy Aquino International Airport (RPLL)
Time Latitude Longitude Altitude Speed Heading
2026-05-01 14:09 13.57958 124.21209 108 ft 0 kts 149°
2026-05-01 14:13 13.57937 124.21172 107 ft 0 kts 149°
2026-05-01 14:19 13.57932 124.21169 108 ft 2 kts 219°
2026-05-01 14:19 13.57936 124.21161 109 ft 3 kts 315°
2026-05-01 14:19 13.57982 124.21151 108 ft 6 kts 43°
2026-05-01 14:20 13.58013 124.21207 104 ft 17 kts 59°
2026-05-01 14:20 13.58077 124.21190 104 ft 4 kts 327°
2026-05-01 14:20 13.58087 124.21181 105 ft 0 kts 298°
2026-05-01 14:21 13.58083 124.21169 105 ft 6 kts 243°
2026-05-01 14:21 13.58080 124.21163 106 ft 14 kts 241°
2026-05-01 14:21 13.57710 124.20497 132 ft 197 kts 240°
2026-05-01 14:22 13.55765 124.17297 2085 ft 325 kts 235°
2026-05-01 14:22 13.54731 124.15611 1566 ft 235 kts 237°
2026-05-01 14:22 13.53860 124.14211 1722 ft 229 kts 236°
2026-05-01 14:22 13.52990 124.12815 1822 ft 234 kts 236°
2026-05-01 14:23 13.52151 124.11385 1874 ft 233 kts 250°
2026-05-01 14:23 13.52036 124.09758 2371 ft 231 kts 278°
2026-05-01 14:23 13.52297 124.08107 3088 ft 233 kts 282°
2026-05-01 14:23 13.52610 124.06443 3791 ft 237 kts 282°
2026-05-01 14:24 13.52913 124.04756 4519 ft 240 kts 282°
2026-05-01 14:24 13.53196 124.03058 5235 ft 242 kts 281°
2026-05-01 14:24 13.53474 124.01333 5959 ft 246 kts 280°
2026-05-01 14:24 13.53641 123.99570 6668 ft 249 kts 273°
2026-05-01 14:25 13.53702 123.97778 7370 ft 252 kts 273°
2026-05-01 14:25 13.53808 123.95966 8080 ft 254 kts 275°
2026-05-01 14:25 13.53965 123.93986 8844 ft 354 kts 275°
2026-05-01 14:25 13.54137 123.91336 9660 ft 371 kts 273°
2026-05-01 14:26 13.54290 123.88700 10396 ft 373 kts 274°
2026-05-01 14:26 13.54647 123.83390 11836 ft 379 kts 274°
2026-05-01 14:26 13.54850 123.80130 12629 ft 566 kts 274°
2026-05-01 14:27 13.55133 123.75777 13460 ft 618 kts 274°
2026-05-01 14:27 13.55418 123.71340 14221 ft 627 kts 274°
2026-05-01 14:27 13.55704 123.66843 14942 ft 635 kts 274°
2026-05-01 14:28 13.56291 123.57635 16245 ft 661 kts 274°
2026-05-01 14:28 13.56592 123.52898 16918 ft 667 kts 274°
2026-05-01 14:28 13.56894 123.48128 17643 ft 665 kts 274°
2026-05-01 14:28 13.57194 123.43358 18412 ft 672 kts 274°
2026-05-01 14:29 13.57496 123.38557 19123 ft 676 kts 274°
2026-05-01 14:29 13.57799 123.33727 19858 ft 681 kts 274°
2026-05-01 14:30 13.60949 123.19649 22158 ft 680 kts 298°
2026-05-01 14:30 13.63287 123.15394 22941 ft 687 kts 301°
2026-05-01 14:30 13.65750 123.11157 23529 ft 693 kts 301°
2026-05-01 14:31 13.69975 123.02220 23864 ft 696 kts 296°
2026-05-01 14:31 13.72183 122.97793 23914 ft 697 kts 296°
2026-05-01 14:31 13.74270 122.93287 23941 ft 697 kts 296°
2026-05-01 14:31 13.76431 122.88820 23953 ft 697 kts 296°
2026-05-01 14:32 13.78549 122.84334 23963 ft 698 kts 296°
2026-05-01 14:32 13.80686 122.79852 23958 ft 698 kts 296°
2026-05-01 14:32 13.82818 122.75371 23951 ft 697 kts 296°
2026-05-01 14:32 13.84942 122.70887 23948 ft 697 kts 296°
2026-05-01 14:33 13.87073 122.66412 23956 ft 697 kts 296°
2026-05-01 14:33 13.89192 122.61935 23956 ft 697 kts 296°
2026-05-01 14:33 13.91320 122.57454 23953 ft 696 kts 296°
2026-05-01 14:33 13.93441 122.52976 23956 ft 696 kts 296°
2026-05-01 14:34 13.95558 122.48505 23950 ft 696 kts 296°
2026-05-01 14:34 13.97675 122.44034 23954 ft 695 kts 296°
2026-05-01 14:34 13.99789 122.39565 23962 ft 693 kts 296°
2026-05-01 14:34 14.01901 122.35099 23958 ft 693 kts 296°
2026-05-01 14:35 14.03295 122.32150 23957 ft 692 kts 296°
2026-05-01 14:35 14.06112 122.26185 23951 ft 692 kts 296°
2026-05-01 14:35 14.08213 122.21734 23950 ft 691 kts 296°
2026-05-01 14:35 14.10308 122.17293 23950 ft 674 kts 296°
2026-05-01 14:36 14.12142 122.13404 23937 ft 547 kts 296°
2026-05-01 14:36 14.13686 122.10128 23935 ft 473 kts 295°
2026-05-01 14:36 14.15049 122.07236 23933 ft 440 kts 295°
2026-05-01 14:36 14.16390 122.04385 23934 ft 440 kts 296°
2026-05-01 14:37 14.17727 122.01547 23939 ft 442 kts 295°
2026-05-01 14:37 14.19062 121.98709 23943 ft 439 kts 295°
2026-05-01 14:37 14.20395 121.95863 23948 ft 441 kts 295°
2026-05-01 14:37 14.21677 121.93005 23953 ft 439 kts 294°
2026-05-01 14:38 14.22853 121.90104 23952 ft 429 kts 288°
2026-05-01 14:38 14.23420 121.88244 23947 ft 394 kts 285°
2026-05-01 14:38 14.24434 121.84808 23939 ft 373 kts 289°
2026-05-01 14:38 14.25287 121.82301 23938 ft 369 kts 288°
2026-05-01 14:39 14.25820 121.80630 23941 ft 372 kts 287°
2026-05-01 14:39 14.26881 121.77232 23523 ft 371 kts 287°
2026-05-01 14:39 14.27398 121.75568 23012 ft 367 kts 287°
2026-05-01 14:39 14.28174 121.73056 22245 ft 366 kts 287°
2026-05-01 14:40 14.29193 121.69725 21264 ft 363 kts 287°
2026-05-01 14:40 14.29694 121.68077 20784 ft 363 kts 287°
2026-05-01 14:40 14.30441 121.65600 20087 ft 362 kts 287°
2026-05-01 14:40 14.31181 121.63129 19405 ft 359 kts 287°
2026-05-01 14:41 14.31910 121.60679 18745 ft 357 kts 287°
2026-05-01 14:41 14.32630 121.58238 18056 ft 354 kts 287°
2026-05-01 14:41 14.33340 121.55823 17295 ft 349 kts 287°
2026-05-01 14:41 14.34034 121.53438 16560 ft 345 kts 287°
2026-05-01 14:42 14.34718 121.51078 15849 ft 342 kts 287°
2026-05-01 14:42 14.35390 121.48745 15156 ft 337 kts 287°
2026-05-01 14:42 14.36049 121.46442 14458 ft 335 kts 287°
2026-05-01 14:42 14.36706 121.44146 13782 ft 332 kts 287°
2026-05-01 14:43 14.37354 121.41875 13030 ft 328 kts 287°
2026-05-01 14:43 14.37987 121.39643 12292 ft 322 kts 287°
2026-05-01 14:43 14.38606 121.37444 11569 ft 318 kts 287°
2026-05-01 14:43 14.39217 121.35266 10872 ft 312 kts 288°
2026-05-01 14:44 14.40196 121.33319 10196 ft 307 kts 309°
2026-05-01 14:44 14.42985 121.30087 8739 ft 299 kts 316°
2026-05-01 14:44 14.44428 121.28570 8008 ft 292 kts 317°
2026-05-01 14:45 14.45829 121.27126 7456 ft 276 kts 317°
2026-05-01 14:45 14.48457 121.24461 6188 ft 259 kts 317°
2026-05-01 14:45 14.49735 121.23176 5560 ft 254 kts 317°
2026-05-01 14:46 14.50984 121.21917 5267 ft 255 kts 317°
2026-05-01 14:46 14.53518 121.19362 5085 ft 255 kts 317°
2026-05-01 14:46 14.54791 121.18089 5037 ft 255 kts 317°
2026-05-01 14:47 14.56083 121.16809 4757 ft 260 kts 317°
2026-05-01 14:47 14.57350 121.15534 4340 ft 248 kts 318°
2026-05-01 14:47 14.58583 121.14270 4159 ft 251 kts 317°
2026-05-01 14:48 14.61044 121.11732 4041 ft 251 kts 317°
2026-05-01 14:48 14.62276 121.10461 4020 ft 252 kts 317°
2026-05-01 14:48 14.64758 121.07900 3747 ft 256 kts 317°
2026-05-01 14:49 14.67192 121.05355 3169 ft 248 kts 317°
2026-05-01 14:49 14.69594 121.02824 3050 ft 247 kts 317°
2026-05-01 14:50 14.71138 121.00361 2830 ft 258 kts 278°
2026-05-01 14:50 14.69255 120.97118 2725 ft 228 kts 207°
2026-05-01 14:51 14.67951 120.96226 2695 ft 225 kts 216°
2026-05-01 14:51 14.65929 120.93737 2692 ft 229 kts 236°
2026-05-01 14:52 14.64604 120.90757 2688 ft 228 kts 250°
2026-05-01 14:52 14.63895 120.89318 2687 ft 225 kts 221°
2026-05-01 14:52 14.61173 120.89038 2755 ft 203 kts 135°
2026-05-01 14:53 14.60297 120.90164 2772 ft 197 kts 119°
2026-05-01 14:53 14.59578 120.91379 3064 ft 201 kts 117°
2026-05-01 14:53 14.58837 120.92616 2369 ft 202 kts 123°
2026-05-01 14:53 14.58003 120.93718 1996 ft 185 kts 128°
2026-05-01 14:54 14.57199 120.94624 1771 ft 159 kts 130°
2026-05-01 14:54 14.56506 120.95406 1408 ft 146 kts 128°
2026-05-01 14:54 14.55895 120.96156 960 ft 128 kts 127°
2026-05-01 14:54 14.55310 120.96863 868 ft 125 kts 129°
2026-05-01 14:55 14.54718 120.97552 927 ft 131 kts 130°
2026-05-01 14:55 14.54118 120.98252 928 ft 133 kts 127°
2026-05-01 14:55 14.53589 120.98990 717 ft 131 kts 126°
2026-05-01 14:55 14.52936 120.99792 397 ft 157 kts 133°
2026-05-01 14:56 14.52237 121.00531 96 ft 121 kts 135°
2026-05-01 14:56 14.51852 121.00925 67 ft 21 kts 134°
2026-05-01 14:56 14.51716 121.01070 68 ft 35 kts 134°
2026-05-01 14:56 14.51533 121.01261 66 ft 39 kts 135°
2026-05-01 14:57 14.51378 121.01423 66 ft 16 kts 135°
2026-05-01 14:57 14.51189 121.01617 65 ft 27 kts 133°
2026-05-01 14:57 14.51065 121.01742 67 ft 17 kts 131°
2026-05-01 14:58 14.51049 121.01855 63 ft 14 kts 56°
2026-05-01 14:58 14.51029 121.01927 66 ft 17 kts 117°
2026-05-01 14:58 14.51078 121.02053 67 ft 22 kts 60°
2026-05-01 14:58 14.51161 121.02206 68 ft 24 kts 62°
2026-05-01 14:59 14.51245 121.02356 63 ft 20 kts 61°
2026-05-01 14:59 14.51333 121.02504 67 ft 30 kts 53°
2026-05-01 14:59 14.51420 121.02671 66 ft 26 kts 59°
2026-05-01 14:59 14.51507 121.02735 64 ft 15 kts 329°
2026-05-01 15:00 14.51566 121.02738 66 ft 0 kts 59°